Regional Weather Roundup
Issued by NWS

Home | Current Version | Previous Version | Text Only | Print | Product List | Glossary On
Versions: 1 2 3 4 5 6 7 8 9 10 11 12 13 14 15 16 17 18 19 20 21 22 23 24 25 26 27 28
000
ASUS46 KPQR 100110
RWROR

OREGON REGIONAL WEATHER ROUNDUP
NATIONAL WEATHER SERVICE PORTLAND OR
500 PM PST FRI DEC 09 2016

NOTE: "FAIR" INDICATES FEW OR NO CLOUDS BELOW 12,000 FEET WITH
NO SIGNIFICANT WEATHER AND/OR OBSTRUCTIONS TO VISIBILITY.

ORZ001>013-100200-
NORTHWEST OREGON


CITY           SKY/WX    TMP DP  RH WIND       PRES   REMARKS
ASTORIA        CLOUDY    43  39  86 E7        29.85F
NEWPORT        MOCLDY    52  46  82 SW20G25   29.94F
PORTLAND       CLOUDY    33  30  88 SE10      29.97F WCI  25
VANCOUVER WA   CLOUDY    34  30  85 SE7       29.96F WCI  28
SCAPPOOSE      LGT RAIN  33  31  92 S3        29.97F
HILLSBORO      CLOUDY    34  33  96 E3        29.94F
AURORA         LGT RAIN  36  35  96 NE5       29.95F FOG     WCI  32
MCMINNVILLE    CLOUDY    34  33  96 CALM      29.95F FOG
SALEM          LGT RAIN  41  39  93 CALM      29.93F FOG
CORVALLIS        N/A     48  45  87 S14       29.95F
EUGENE         LGT RAIN  47  43  86 S9        29.97F
$$

ORZ021-028-100200-
SOUTHWEST OREGON


CITY           SKY/WX    TMP DP  RH WIND       PRES   REMARKS
NORTH BEND     CLOUDY    48  48 100 SE5       30.00F
BROOKINGS      RAIN      49  49 100 CALM      30.04S
ROSEBURG       LGT RAIN  49  48  97 CALM      30.00F
SEXTON SUMMIT  MIX PCPN  37  37 100 S12G20    29.96S VSB 1/4 WCI  29
MEDFORD        LGT RAIN  48  46  93 N3        30.00F
$$

ORZ014>016-041-100200-
COLUMBIA GORGE


CITY           SKY/WX    TMP DP  RH WIND       PRES   REMARKS
TROUTDALE      CLOUDY    32  29  88 E12G22    29.98F WCI  23
THE DALLES     CLOUDY    27  25  92 NW3       30.12F FOG
$$

ORZ029>031-041-044-049-050-061>064-502-503-505>511-100200-
EASTERN OREGON


CITY           SKY/WX    TMP DP  RH WIND       PRES   REMARKS
REDMOND        CLOUDY    27  22  81 NE6       29.90F WCI  20
BEND           CLOUDY    37  34  87 CALM      29.89F
PRINEVILLE     CLOUDY    27  25  93 CALM      29.91F
KLAMATH FALLS  LGT RAIN  42  37  82 W13       29.97S
LAKEVIEW       CLOUDY    43  34  70 S18G29    29.99F
HERMISTON      CLOUDY    25  22  88 CALM      30.11S
PENDLETON      CLOUDY    21  18  88 NW3       30.03F
JOHN DAY       CLOUDY    37  36  96 SE3       29.94F
MEACHAM        CLOUDY    31  27  85 CALM      29.92S
LA GRANDE      CLOUDY    32  21  64 SE7       29.98F WCI  26
BAKER CITY     LGT SNOW  24  24 100 CALM      30.00F FOG
BURNS          CLOUDY    33  32  96 CALM      29.97S
ROME             N/A     46  38  73 S7        29.96R
ONTARIO        MIX PCPN  30  27  88 CALM      30.10R
$$




USA.gov is the U.S. government's official web portal to all federal, state and local government web resources and services.